Time,TemperatureF,DewpointF,PressureIn,WindDirection,WindDirectionDegrees,WindSpeedMPH,WindSpeedGustMPH,Humidity,HourlyPrecipIn,Conditions,Clouds,dailyrainin,SoftwareType,DateUTC
2013-05-25 00:05:00,45.5,32.4,30.30,SE,126,0.0,2.0,60,0.00,,,0.00,Wunderground v.1.13,2013-05-25 05:05:00,
2013-05-25 00:15:00,45.7,32.6,30.29,ESE,113,0.0,2.0,60,0.00,,,0.00,Wunderground v.1.13,2013-05-25 05:15:00,
2013-05-25 00:25:00,45.5,32.8,30.28,ESE,113,0.0,2.0,61,0.00,,,0.00,Wunderground v.1.13,2013-05-25 05:25:00,
2013-05-25 00:30:00,45.5,32.8,30.28,ESE,113,0.0,2.0,61,0.00,,,0.00,Wunderground v.1.13,2013-05-25 05:30:00,
2013-05-25 00:40:00,45.4,32.7,30.27,ESE,111,0.0,2.0,61,0.00,,,0.00,Wunderground v.1.13,2013-05-25 05:40:00,
2013-05-25 00:45:00,45.4,32.7,30.27,ESE,111,0.0,2.0,61,0.00,,,0.00,Wunderground v.1.13,2013-05-25 05:45:00,
2013-05-25 00:50:00,45.4,33.1,30.27,ESE,111,0.0,2.0,62,0.00,,,0.00,Wunderground v.1.13,2013-05-25 05:50:00,
2013-05-25 00:55:00,45.4,33.1,30.26,ESE,111,0.0,2.0,62,0.00,,,0.00,Wunderground v.1.13,2013-05-25 05:55:00,
2013-05-25 01:05:00,45.5,33.2,30.26,ESE,111,0.0,2.0,62,0.00,,,0.00,Wunderground v.1.13,2013-05-25 06:05:00,
2013-05-25 01:15:00,45.7,32.2,30.25,ESE,111,0.0,2.0,59,0.00,,,0.00,Wunderground v.1.13,2013-05-25 06:15:00,
2013-05-25 01:25:00,45.8,31.9,30.25,East,99,0.0,2.0,58,0.00,,,0.00,Wunderground v.1.13,2013-05-25 06:25:00,
2013-05-25 01:35:00,46.0,31.6,30.25,East,101,0.0,2.0,57,0.00,,,0.00,Wunderground v.1.13,2013-05-25 06:35:00,
2013-05-25 01:45:00,46.1,32.1,30.25,East,101,0.0,2.0,58,0.00,,,0.00,Wunderground v.1.13,2013-05-25 06:45:00,
2013-05-25 01:50:00,46.1,32.6,30.25,East,101,0.0,2.0,59,0.00,,,0.00,Wunderground v.1.13,2013-05-25 06:50:00,
2013-05-25 02:00:00,46.0,32.0,30.25,East,101,0.0,2.0,58,0.00,,,0.00,Wunderground v.1.13,2013-05-25 07:00:00,
2013-05-25 02:05:00,46.0,32.5,30.25,East,101,0.0,6.0,59,0.00,,,0.00,Wunderground v.1.13,2013-05-25 07:05:00,
2013-05-25 02:15:00,45.8,32.7,30.25,East,101,0.0,6.0,60,0.00,,,0.00,Wunderground v.1.13,2013-05-25 07:15:00,
2013-05-25 02:25:00,45.8,32.7,30.25,East,101,0.0,6.0,60,0.00,,,0.00,Wunderground v.1.13,2013-05-25 07:25:00,
2013-05-25 02:30:00,45.8,33.5,30.25,East,101,0.0,6.0,62,0.00,,,0.00,Wunderground v.1.13,2013-05-25 07:30:00,
2013-05-25 02:40:00,45.8,33.9,30.26,East,101,0.0,0.0,63,0.00,,,0.00,Wunderground v.1.13,2013-05-25 07:40:00,
2013-05-25 02:45:00,45.7,34.6,30.26,East,101,0.0,0.0,65,0.00,,,0.00,Wunderground v.1.13,2013-05-25 07:45:00,
2013-05-25 02:50:00,45.7,34.6,30.26,East,101,0.0,0.0,65,0.00,,,0.00,Wunderground v.1.13,2013-05-25 07:50:00,
2013-05-25 03:00:00,45.5,34.8,30.28,East,101,0.0,0.0,66,0.00,,,0.00,Wunderground v.1.13,2013-05-25 08:00:00,
2013-05-25 03:05:00,45.4,34.7,30.28,East,101,0.0,0.0,66,0.00,,,0.00,Wunderground v.1.13,2013-05-25 08:05:00,
2013-05-25 03:15:00,45.2,35.3,30.28,East,101,0.0,0.0,68,0.00,,,0.00,Wunderground v.1.13,2013-05-25 08:15:00,
2013-05-25 03:20:00,44.9,35.3,30.28,East,101,0.0,0.0,69,0.00,,,0.00,Wunderground v.1.13,2013-05-25 08:20:00,
2013-05-25 03:25:00,44.8,35.2,30.27,East,101,0.0,0.0,69,0.00,,,0.00,Wunderground v.1.13,2013-05-25 08:25:00,
2013-05-25 03:35:00,44.6,35.4,30.27,East,101,0.0,0.0,70,0.00,,,0.00,Wunderground v.1.13,2013-05-25 08:35:00,
2013-05-25 03:45:00,44.8,36.3,30.27,East,101,0.0,0.0,72,0.00,,,0.00,Wunderground v.1.13,2013-05-25 08:45:00,
2013-05-25 03:50:00,44.9,36.8,30.27,East,101,0.0,0.0,73,0.00,,,0.00,Wunderground v.1.13,2013-05-25 08:50:00,
2013-05-25 04:00:00,45.1,37.0,30.26,East,101,0.0,0.0,73,0.00,,,0.00,Wunderground v.1.13,2013-05-25 09:00:00,
2013-05-25 04:05:00,45.1,36.6,30.26,East,101,0.0,0.0,72,0.00,,,0.00,Wunderground v.1.13,2013-05-25 09:05:00,
2013-05-25 04:15:00,45.4,36.9,30.26,East,101,0.0,0.0,72,0.00,,,0.00,Wunderground v.1.13,2013-05-25 09:15:00,
2013-05-25 04:20:00,45.5,37.0,30.26,East,101,0.0,0.0,72,0.00,,,0.00,Wunderground v.1.13,2013-05-25 09:20:00,
2013-05-25 04:30:00,45.7,35.4,30.26,East,101,0.0,0.0,67,0.00,,,0.00,Wunderground v.1.13,2013-05-25 09:30:00,
2013-05-25 04:40:00,46.1,35.4,30.27,East,101,0.0,0.0,66,0.00,,,0.00,Wunderground v.1.13,2013-05-25 09:40:00,
2013-05-25 04:45:00,46.2,35.5,30.27,East,101,0.0,0.0,66,0.00,,,0.00,Wunderground v.1.13,2013-05-25 09:45:00,
2013-05-25 04:50:00,46.2,34.7,30.27,East,101,0.0,0.0,64,0.00,,,0.00,Wunderground v.1.13,2013-05-25 09:50:00,
2013-05-25 05:00:00,46.7,32.7,30.26,ESE,103,0.0,0.0,58,0.00,,,0.00,Wunderground v.1.13,2013-05-25 10:00:00,
2013-05-25 05:05:00,46.8,32.4,30.26,ESE,103,0.0,0.0,57,0.00,,,0.00,Wunderground v.1.13,2013-05-25 10:05:00,
2013-05-25 05:15:00,47.1,31.7,30.26,ESE,103,0.0,0.0,55,0.00,,,0.00,Wunderground v.1.13,2013-05-25 10:15:00,
2013-05-25 05:20:00,47.1,31.7,30.26,ESE,103,0.0,2.0,55,0.00,,,0.00,Wunderground v.1.13,2013-05-25 10:20:00,
2013-05-25 05:25:00,47.3,32.4,30.26,ESE,103,0.0,1.0,56,0.00,,,0.00,Wunderground v.1.13,2013-05-25 10:25:00,
2013-05-25 05:35:00,47.4,32.0,30.26,ESE,121,0.0,5.0,55,0.00,,,0.00,Wunderground v.1.13,2013-05-25 10:35:00,
2013-05-25 05:45:00,47.4,32.5,30.27,ESE,121,0.0,5.0,56,0.00,,,0.00,Wunderground v.1.13,2013-05-25 10:45:00,
2013-05-25 05:55:00,47.6,33.5,30.28,ESE,121,0.0,5.0,58,0.00,,,0.00,Wunderground v.1.13,2013-05-25 10:55:00,
2013-05-25 06:00:00,47.6,34.4,30.28,ESE,121,0.0,5.0,60,0.00,,,0.00,Wunderground v.1.13,2013-05-25 11:00:00,
2013-05-25 06:05:00,47.6,34.0,30.28,ESE,121,0.0,6.0,59,0.00,,,0.00,Wunderground v.1.13,2013-05-25 11:05:00,
2013-05-25 06:15:00,47.7,34.9,30.29,ESE,121,0.0,6.0,61,0.00,,,0.00,Wunderground v.1.13,2013-05-25 11:15:00,
2013-05-25 06:25:00,47.9,34.3,30.31,ESE,121,0.0,6.0,59,0.00,,,0.00,Wunderground v.1.13,2013-05-25 11:25:00,
2013-05-25 06:35:00,48.2,35.0,30.31,ESE,121,0.0,5.0,60,0.00,,,0.00,Wunderground v.1.13,2013-05-25 11:35:00,
2013-05-25 06:45:00,48.3,35.5,30.31,ESE,121,0.0,5.0,61,0.00,,,0.00,Wunderground v.1.13,2013-05-25 11:45:00,
2013-05-25 06:50:00,48.6,34.9,30.31,ESE,119,0.0,5.0,59,0.00,,,0.00,Wunderground v.1.13,2013-05-25 11:50:00,
2013-05-25 07:00:00,48.9,34.8,30.30,ESE,115,0.0,5.0,58,0.00,,,0.00,Wunderground v.1.13,2013-05-25 12:00:00,
2013-05-25 07:05:00,49.1,33.6,30.30,ESE,115,0.0,4.0,55,0.00,,,0.00,Wunderground v.1.13,2013-05-25 12:05:00,
2013-05-25 07:15:00,49.5,34.9,30.31,ESE,115,0.0,4.0,57,0.00,,,0.00,Wunderground v.1.13,2013-05-25 12:15:00,
2013-05-25 07:20:00,49.8,34.3,30.31,ESE,115,0.0,4.0,55,0.00,,,0.00,Wunderground v.1.13,2013-05-25 12:20:00,
2013-05-25 07:25:00,49.9,34.4,30.32,ESE,115,0.0,4.0,55,0.00,,,0.00,Wunderground v.1.13,2013-05-25 12:25:00,
2013-05-25 07:30:00,50.1,33.6,30.32,ESE,115,0.0,4.0,53,0.00,,,0.00,Wunderground v.1.13,2013-05-25 12:30:00,
2013-05-25 07:40:00,50.5,34.5,30.32,ESE,114,0.0,3.0,54,0.00,,,0.00,Wunderground v.1.13,2013-05-25 12:40:00,
2013-05-25 07:50:00,51.1,34.5,30.32,ESE,114,0.0,3.0,53,0.00,,,0.00,Wunderground v.1.13,2013-05-25 12:50:00,
2013-05-25 07:55:00,51.4,34.3,30.31,SE,130,0.0,3.0,52,0.00,,,0.00,Wunderground v.1.13,2013-05-25 12:55:00,
2013-05-25 08:05:00,51.9,33.8,30.31,ESE,121,0.0,2.0,50,0.00,,,0.00,Wunderground v.1.13,2013-05-25 13:05:00,
2013-05-25 08:15:00,52.2,33.6,30.31,ESE,105,0.0,2.0,49,0.00,,,0.00,Wunderground v.1.13,2013-05-25 13:15:00,
2013-05-25 08:20:00,52.5,34.4,30.31,ESE,105,0.0,2.0,50,0.00,,,0.00,Wunderground v.1.13,2013-05-25 13:20:00,
2013-05-25 08:25:00,52.5,33.9,30.31,ESE,105,0.0,2.0,49,0.00,,,0.00,Wunderground v.1.13,2013-05-25 13:25:00,
2013-05-25 08:35:00,52.6,35.0,30.31,ESE,112,0.0,6.0,51,0.00,,,0.00,Wunderground v.1.13,2013-05-25 13:35:00,
2013-05-25 08:45:00,52.6,34.5,30.32,SSE,148,0.0,6.0,50,0.00,,,0.00,Wunderground v.1.13,2013-05-25 13:45:00,
2013-05-25 08:50:00,52.6,35.5,30.32,SE,145,0.0,6.0,52,0.00,,,0.00,Wunderground v.1.13,2013-05-25 13:50:00,
2013-05-25 09:00:00,52.6,35.5,30.32,SE,129,0.0,6.0,52,0.00,,,0.00,Wunderground v.1.13,2013-05-25 14:00:00,
2013-05-25 09:05:00,52.8,34.7,30.32,ESE,111,0.0,5.0,50,0.00,,,0.00,Wunderground v.1.13,2013-05-25 14:05:00,
2013-05-25 09:15:00,53.3,35.1,30.32,ESE,111,0.0,5.0,50,0.00,,,0.00,Wunderground v.1.13,2013-05-25 14:15:00,
2013-05-25 09:20:00,53.5,34.8,30.32,ESE,102,0.0,5.0,49,0.00,,,0.00,Wunderground v.1.13,2013-05-25 14:20:00,
2013-05-25 09:25:00,53.6,33.8,30.32,ESE,103,1.0,1.0,47,0.00,,,0.00,Wunderground v.1.13,2013-05-25 14:25:00,
2013-05-25 09:35:00,53.8,34.6,30.32,ESE,115,1.0,1.0,48,0.00,,,0.00,Wunderground v.1.13,2013-05-25 14:35:00,
2013-05-25 09:40:00,53.9,36.2,30.32,ESE,115,1.0,1.0,51,0.00,,,0.00,Wunderground v.1.13,2013-05-25 14:40:00,
2013-05-25 09:50:00,54.1,37.3,30.32,ESE,114,0.0,2.0,53,0.00,,,0.00,Wunderground v.1.13,2013-05-25 14:50:00,
2013-05-25 09:55:00,54.2,35.9,30.31,ESE,113,0.0,2.0,50,0.00,,,0.00,Wunderground v.1.13,2013-05-25 14:55:00,
2013-05-25 10:05:00,54.4,35.1,30.31,ESE,105,0.0,8.0,48,0.00,,,0.00,Wunderground v.1.13,2013-05-25 15:05:00,
2013-05-25 10:15:00,54.7,34.8,30.32,East,84,0.0,8.0,47,0.00,,,0.00,Wunderground v.1.13,2013-05-25 15:15:00,
2013-05-25 10:20:00,54.8,33.8,30.32,ENE,78,0.0,8.0,45,0.00,,,0.00,Wunderground v.1.13,2013-05-25 15:20:00,
2013-05-25 10:25:00,55.0,35.1,30.30,East,79,0.0,8.0,47,0.00,,,0.00,Wunderground v.1.13,2013-05-25 15:25:00,
2013-05-25 10:35:00,55.1,35.7,30.30,East,101,0.0,7.0,48,0.00,,,0.00,Wunderground v.1.13,2013-05-25 15:35:00,
2013-05-25 10:45:00,55.1,35.7,30.32,SE,136,0.0,7.0,48,0.00,,,0.00,Wunderground v.1.13,2013-05-25 15:45:00,
2013-05-25 10:50:00,55.0,35.1,30.32,ESE,105,0.0,7.0,47,0.00,,,0.00,Wunderground v.1.13,2013-05-25 15:50:00,
2013-05-25 11:00:00,54.8,36.5,30.31,ESE,107,0.0,7.0,50,0.00,,,0.00,Wunderground v.1.13,2013-05-25 16:00:00,
2013-05-25 11:05:00,54.8,36.5,30.31,ESE,122,0.0,6.0,50,0.00,,,0.00,Wunderground v.1.13,2013-05-25 16:05:00,
2013-05-25 11:15:00,55.1,35.7,30.31,ESE,108,1.0,1.0,48,0.00,,,0.00,Wunderground v.1.13,2013-05-25 16:15:00,
2013-05-25 11:20:00,55.1,35.7,30.31,ESE,103,1.0,6.0,48,0.00,,,0.00,Wunderground v.1.13,2013-05-25 16:20:00,
2013-05-25 11:25:00,55.7,37.3,30.30,ENE,71,1.0,6.0,50,0.00,,,0.00,Wunderground v.1.13,2013-05-25 16:25:00,
2013-05-25 11:30:00,56.0,36.6,30.30,ESE,109,1.0,1.0,48,0.00,,,0.00,Wunderground v.1.13,2013-05-25 16:30:00,
2013-05-25 11:40:00,56.9,36.9,30.30,ESE,111,1.0,1.0,47,0.00,,,0.00,Wunderground v.1.13,2013-05-25 16:40:00,
2013-05-25 11:45:00,56.7,35.6,30.30,ESE,117,2.0,7.0,45,0.00,,,0.00,Wunderground v.1.13,2013-05-25 16:45:00,
2013-05-25 11:55:00,56.3,35.8,30.30,ESE,115,3.0,3.0,46,0.00,,,0.00,Wunderground v.1.13,2013-05-25 16:55:00,
2013-05-25 12:00:00,56.9,34.6,30.30,SSE,153,4.0,7.0,43,0.00,,,0.00,Wunderground v.1.13,2013-05-25 17:00:00,
2013-05-25 12:05:00,57.2,34.9,30.30,SSE,154,4.0,9.0,43,0.00,,,0.00,Wunderground v.1.13,2013-05-25 17:05:00,
2013-05-25 12:15:00,57.6,35.8,30.30,East,90,3.0,3.0,44,0.00,,,0.00,Wunderground v.1.13,2013-05-25 17:15:00,
2013-05-25 12:25:00,58.0,33.8,30.30,South,169,3.0,9.0,40,0.00,,,0.00,Wunderground v.1.13,2013-05-25 17:25:00,
2013-05-25 12:35:00,58.1,35.1,30.30,SE,132,3.0,3.0,42,0.00,,,0.00,Wunderground v.1.13,2013-05-25 17:35:00,
2013-05-25 12:40:00,58.0,31.8,30.30,SSE,154,3.0,3.0,37,0.00,,,0.00,Wunderground v.1.13,2013-05-25 17:40:00,
2013-05-25 12:45:00,58.0,32.5,30.30,SSE,159,3.0,11.0,38,0.00,,,0.00,Wunderground v.1.13,2013-05-25 17:45:00,
2013-05-25 12:55:00,58.3,35.9,30.28,ESE,118,2.0,2.0,43,0.00,,,0.00,Wunderground v.1.13,2013-05-25 17:55:00,
2013-05-25 13:05:00,58.9,35.8,30.28,ESE,106,2.0,10.0,42,0.00,,,0.00,Wunderground v.1.13,2013-05-25 18:05:00,
2013-05-25 13:15:00,59.0,35.3,30.27,SSE,147,4.0,4.0,41,0.00,,,0.00,Wunderground v.1.13,2013-05-25 18:15:00,
2013-05-25 13:20:00,59.0,32.7,30.27,SE,134,4.0,10.0,37,0.00,,,0.00,Wunderground v.1.13,2013-05-25 18:20:00,
2013-05-25 13:30:00,58.9,33.3,30.27,East,98,4.0,10.0,38,0.00,,,0.00,Wunderground v.1.13,2013-05-25 18:30:00,
2013-05-25 13:35:00,58.9,32.0,30.27,East,101,3.0,9.0,36,0.00,,,0.00,Wunderground v.1.13,2013-05-25 18:35:00,
2013-05-25 13:45:00,59.2,34.2,30.26,SE,127,3.0,3.0,39,0.00,,,0.00,Wunderground v.1.13,2013-05-25 18:45:00,
2013-05-25 13:50:00,59.2,35.5,30.26,ESE,121,2.0,2.0,41,0.00,,,0.00,Wunderground v.1.13,2013-05-25 18:50:00,
2013-05-25 14:00:00,59.3,35.0,30.25,ESE,110,2.0,2.0,40,0.00,,,0.00,Wunderground v.1.13,2013-05-25 19:00:00,
2013-05-25 14:05:00,59.8,35.4,30.25,SSE,167,3.0,3.0,40,0.00,,,0.00,Wunderground v.1.13,2013-05-25 19:05:00,
2013-05-25 14:15:00,59.9,33.5,30.25,ESE,111,3.0,3.0,37,0.00,,,0.00,Wunderground v.1.13,2013-05-25 19:15:00,
2013-05-25 14:20:00,59.9,35.5,30.25,SSE,148,3.0,12.0,40,0.00,,,0.00,Wunderground v.1.13,2013-05-25 19:20:00,
2013-05-25 14:25:00,59.8,34.8,30.25,ESE,108,2.0,12.0,39,0.00,,,0.00,Wunderground v.1.13,2013-05-25 19:25:00,
2013-05-25 14:35:00,60.2,35.8,30.25,ESE,119,2.0,2.0,40,0.00,,,0.00,Wunderground v.1.13,2013-05-25 19:35:00,
2013-05-25 14:40:00,60.2,35.1,30.25,SE,145,3.0,3.0,39,0.00,,,0.00,Wunderground v.1.13,2013-05-25 19:40:00,
2013-05-25 14:45:00,60.2,36.4,30.25,East,87,2.0,11.0,41,0.00,,,0.00,Wunderground v.1.13,2013-05-25 19:45:00,
2013-05-25 14:55:00,60.4,37.2,30.26,ENE,74,2.0,11.0,42,0.00,,,0.00,Wunderground v.1.13,2013-05-25 19:55:00,
2013-05-25 15:00:00,60.4,37.8,30.26,South,177,2.0,11.0,43,0.00,,,0.00,Wunderground v.1.13,2013-05-25 20:00:00,
2013-05-25 15:05:00,60.4,35.3,30.26,ESE,106,1.0,1.0,39,0.00,,,0.00,Wunderground v.1.13,2013-05-25 20:05:00,
2013-05-25 15:15:00,60.2,35.1,30.27,SE,142,1.0,1.0,39,0.00,,,0.00,Wunderground v.1.13,2013-05-25 20:15:00,
2013-05-25 15:20:00,60.5,37.3,30.27,ENE,76,1.0,9.0,42,0.00,,,0.00,Wunderground v.1.13,2013-05-25 20:20:00,
2013-05-25 15:25:00,60.4,34.0,30.27,ESE,117,1.0,9.0,37,0.00,,,0.00,Wunderground v.1.13,2013-05-25 20:25:00,
2013-05-25 15:35:00,59.8,35.4,30.27,East,98,1.0,1.0,40,0.00,,,0.00,Wunderground v.1.13,2013-05-25 20:35:00,
2013-05-25 15:40:00,60.1,36.9,30.26,East,101,0.0,8.0,42,0.00,,,0.00,Wunderground v.1.13,2013-05-25 20:40:00,
2013-05-25 15:45:00,60.1,35.7,30.26,ENE,74,0.0,8.0,40,0.00,,,0.00,Wunderground v.1.13,2013-05-25 20:45:00,
2013-05-25 15:50:00,60.1,36.3,30.26,NE,55,1.0,8.0,41,0.00,,,0.00,Wunderground v.1.13,2013-05-25 20:50:00,
2013-05-25 15:55:00,60.1,37.5,30.25,East,98,1.0,8.0,43,0.00,,,0.00,Wunderground v.1.13,2013-05-25 20:55:00,
2013-05-25 16:00:00,59.9,36.7,30.25,ESE,115,1.0,1.0,42,0.00,,,0.00,Wunderground v.1.13,2013-05-25 21:00:00,
2013-05-25 16:05:00,59.5,35.8,30.25,East,97,1.0,1.0,41,0.00,,,0.00,Wunderground v.1.13,2013-05-25 21:05:00,
2013-05-25 16:15:00,59.3,35.6,30.25,ENE,58,0.0,8.0,41,0.00,,,0.00,Wunderground v.1.13,2013-05-25 21:15:00,
2013-05-25 16:20:00,59.2,36.7,30.25,ENE,59,0.0,8.0,43,0.00,,,0.00,Wunderground v.1.13,2013-05-25 21:20:00,
2013-05-25 16:30:00,59.6,35.9,30.25,SE,129,0.0,8.0,41,0.00,,,0.00,Wunderground v.1.13,2013-05-25 21:30:00,
2013-05-25 16:35:00,59.9,35.5,30.25,ESE,105,0.0,6.0,40,0.00,,,0.00,Wunderground v.1.13,2013-05-25 21:35:00,
2013-05-25 16:45:00,60.9,37.0,30.25,East,93,1.0,1.0,41,0.00,,,0.00,Wunderground v.1.13,2013-05-25 21:45:00,
2013-05-25 16:50:00,61.0,35.8,30.25,East,93,1.0,1.0,39,0.00,,,0.00,Wunderground v.1.13,2013-05-25 21:50:00,
2013-05-25 17:00:00,60.5,33.4,30.25,ESE,111,2.0,2.0,36,0.00,,,0.00,Wunderground v.1.13,2013-05-25 22:00:00,
2013-05-25 17:05:00,60.2,35.1,30.25,ESE,111,1.0,1.0,39,0.00,,,0.00,Wunderground v.1.13,2013-05-25 22:05:00,
2013-05-25 17:15:00,59.9,35.5,30.25,East,86,0.0,6.0,40,0.00,,,0.00,Wunderground v.1.13,2013-05-25 22:15:00,
2013-05-25 17:20:00,59.8,34.1,30.25,East,94,1.0,1.0,38,0.00,,,0.00,Wunderground v.1.13,2013-05-25 22:20:00,
2013-05-25 17:30:00,59.8,33.5,30.25,ESE,108,0.0,6.0,37,0.00,,,0.00,Wunderground v.1.13,2013-05-25 22:30:00,
2013-05-25 17:40:00,59.8,32.8,30.24,ESE,118,1.0,1.0,36,0.00,,,0.00,Wunderground v.1.13,2013-05-25 22:40:00,
2013-05-25 17:45:00,59.9,32.9,30.24,ESE,103,1.0,1.0,36,0.00,,,0.00,Wunderground v.1.13,2013-05-25 22:45:00,
2013-05-25 17:50:00,59.8,32.8,30.24,SE,130,1.0,1.0,36,0.00,,,0.00,Wunderground v.1.13,2013-05-25 22:50:00,
2013-05-25 17:55:00,59.6,33.9,30.24,East,101,1.0,6.0,38,0.00,,,0.00,Wunderground v.1.13,2013-05-25 22:55:00,
2013-05-25 18:00:00,59.5,33.9,30.24,East,98,0.0,6.0,38,0.00,,,0.00,Wunderground v.1.13,2013-05-25 23:00:00,
2013-05-25 18:05:00,59.6,33.3,30.24,ESE,105,1.0,6.0,37,0.00,,,0.00,Wunderground v.1.13,2013-05-25 23:05:00,
2013-05-25 18:15:00,59.3,33.0,30.23,ESE,108,2.0,2.0,37,0.00,,,0.00,Wunderground v.1.13,2013-05-25 23:15:00,
2013-05-25 18:20:00,59.5,33.9,30.23,ESE,105,1.0,1.0,38,0.00,,,0.00,Wunderground v.1.13,2013-05-25 23:20:00,
2013-05-25 18:30:00,59.3,34.3,30.22,East,92,1.0,6.0,39,0.00,,,0.00,Wunderground v.1.13,2013-05-25 23:30:00,
2013-05-25 18:40:00,59.2,33.6,30.22,East,98,1.0,7.0,38,0.00,,,0.00,Wunderground v.1.13,2013-05-25 23:40:00,
2013-05-25 18:50:00,58.7,34.4,30.22,East,96,0.0,7.0,40,0.00,,,0.00,Wunderground v.1.13,2013-05-25 23:50:00,
2013-05-25 19:00:00,58.4,32.9,30.22,ESE,120,1.0,1.0,38,0.00,,,0.00,Wunderground v.1.13,2013-05-26 00:00:00,
2013-05-25 19:05:00,58.4,34.8,30.22,ESE,113,1.0,9.0,41,0.00,,,0.00,Wunderground v.1.13,2013-05-26 00:05:00,
2013-05-25 19:15:00,58.3,34.1,30.22,ESE,106,1.0,9.0,40,0.00,,,0.00,Wunderground v.1.13,2013-05-26 00:15:00,
2013-05-25 19:25:00,57.6,35.2,30.22,ESE,108,0.0,9.0,43,0.00,,,0.00,Wunderground v.1.13,2013-05-26 00:25:00,
2013-05-25 19:35:00,57.0,33.5,30.22,ESE,104,0.0,7.0,41,0.00,,,0.00,Wunderground v.1.13,2013-05-26 00:35:00,
2013-05-25 19:40:00,56.9,34.0,30.22,ESE,102,0.0,7.0,42,0.00,,,0.00,Wunderground v.1.13,2013-05-26 00:40:00,
2013-05-25 19:50:00,56.5,31.8,30.22,ESE,103,0.0,7.0,39,0.00,,,0.00,Wunderground v.1.13,2013-05-26 00:50:00,
2013-05-25 19:55:00,56.5,32.4,30.22,ESE,103,0.0,7.0,40,0.00,,,0.00,Wunderground v.1.13,2013-05-26 00:55:00,
2013-05-25 20:00:00,56.5,31.8,30.22,ESE,103,0.0,7.0,39,0.00,,,0.00,Wunderground v.1.13,2013-05-26 01:00:00,
2013-05-25 20:05:00,56.3,31.6,30.22,ESE,103,0.0,8.0,39,0.00,,,0.00,Wunderground v.1.13,2013-05-26 01:05:00,
2013-05-25 20:15:00,56.2,30.9,30.23,ESE,103,0.0,8.0,38,0.00,,,0.00,Wunderground v.1.13,2013-05-26 01:15:00,
2013-05-25 20:25:00,56.0,31.4,30.22,ESE,103,0.0,8.0,39,0.00,,,0.00,Wunderground v.1.13,2013-05-26 01:25:00,
2013-05-25 20:30:00,55.9,31.9,30.22,ESE,103,0.0,8.0,40,0.00,,,0.00,Wunderground v.1.13,2013-05-26 01:30:00,
2013-05-25 20:40:00,55.6,32.8,30.22,ESE,103,0.0,2.0,42,0.00,,,0.00,Wunderground v.1.13,2013-05-26 01:40:00,
2013-05-25 20:50:00,55.3,33.2,30.22,ESE,103,0.0,2.0,43,0.00,,,0.00,Wunderground v.1.13,2013-05-26 01:50:00,
2013-05-25 21:00:00,55.1,30.6,30.22,ESE,103,0.0,2.0,39,0.00,,,0.00,Wunderground v.1.13,2013-05-26 02:00:00,
2013-05-25 21:05:00,55.1,29.9,30.22,ESE,103,0.0,0.0,38,0.00,,,0.00,Wunderground v.1.13,2013-05-26 02:05:00,
2013-05-25 21:15:00,55.0,29.8,30.23,ESE,103,0.0,0.0,38,0.00,,,0.00,Wunderground v.1.13,2013-05-26 02:15:00,
2013-05-25 21:25:00,54.7,30.8,30.23,ESE,103,0.0,0.0,40,0.00,,,0.00,Wunderground v.1.13,2013-05-26 02:25:00,
2013-05-25 21:35:00,54.2,31.0,30.23,ESE,103,0.0,0.0,41,0.00,,,0.00,Wunderground v.1.13,2013-05-26 02:35:00,
2013-05-25 21:40:00,53.9,31.9,30.23,ESE,103,0.0,0.0,43,0.00,,,0.00,Wunderground v.1.13,2013-05-26 02:40:00,
2013-05-25 21:50:00,53.3,31.9,30.23,ESE,103,0.0,0.0,44,0.00,,,0.00,Wunderground v.1.13,2013-05-26 02:50:00,
2013-05-25 22:00:00,52.9,32.1,30.24,ESE,103,0.0,0.0,45,0.00,,,0.00,Wunderground v.1.13,2013-05-26 03:00:00,
2013-05-25 22:05:00,52.6,32.4,30.24,East,101,0.0,0.0,46,0.00,,,0.00,Wunderground v.1.13,2013-05-26 03:05:00,
2013-05-25 22:15:00,52.0,32.9,30.25,East,101,0.0,0.0,48,0.00,,,0.00,Wunderground v.1.13,2013-05-26 03:15:00,
2013-05-25 22:25:00,51.4,33.9,30.25,East,101,0.0,0.0,51,0.00,,,0.00,Wunderground v.1.13,2013-05-26 03:25:00,
2013-05-25 22:35:00,50.7,34.6,30.25,East,101,0.0,5.0,54,0.00,,,0.00,Wunderground v.1.13,2013-05-26 03:35:00,
2013-05-25 22:45:00,49.8,34.7,30.25,East,101,0.0,5.0,56,0.00,,,0.00,Wunderground v.1.13,2013-05-26 03:45:00,
2013-05-25 22:55:00,49.2,33.7,30.25,East,101,0.0,5.0,55,0.00,,,0.00,Wunderground v.1.13,2013-05-26 03:55:00,
2013-05-25 23:00:00,49.1,33.6,30.25,East,101,0.0,5.0,55,0.00,,,0.00,Wunderground v.1.13,2013-05-26 04:00:00,
2013-05-25 23:05:00,49.1,33.6,30.25,East,101,0.0,1.0,55,0.00,,,0.00,Wunderground v.1.13,2013-05-26 04:05:00,
2013-05-25 23:15:00,48.9,33.4,30.25,East,101,0.0,1.0,55,0.00,,,0.00,Wunderground v.1.13,2013-05-26 04:15:00,
2013-05-25 23:25:00,48.8,32.9,30.24,East,101,0.0,1.0,54,0.00,,,0.00,Wunderground v.1.13,2013-05-26 04:25:00,
2013-05-25 23:30:00,48.6,33.1,30.24,East,101,0.0,1.0,55,0.00,,,0.00,Wunderground v.1.13,2013-05-26 04:30:00,
2013-05-25 23:35:00,48.6,33.1,30.24,East,101,0.0,1.0,55,0.00,,,0.00,Wunderground v.1.13,2013-05-26 04:35:00,
2013-05-25 23:40:00,48.5,33.5,30.23,East,101,0.0,1.0,56,0.00,,,0.00,Wunderground v.1.13,2013-05-26 04:40:00,
2013-05-25 23:45:00,48.2,32.8,30.23,East,101,0.0,1.0,55,0.00,,,0.00,Wunderground v.1.13,2013-05-26 04:45:00,
2013-05-25 23:55:00,47.9,32.9,30.23,East,101,0.0,1.0,56,0.00,,,0.00,Wunderground v.1.13,2013-05-26 04:55:00,